,,,PA_Meas_PMT16A,,PR_Meas_QMR101_102,,RH_Meas_QMH101,,SR_Meas_QMS101,,TA_Meas_QMH101,,GenWind,,GenWind,
date,time,status,PA,status,PR,status,RH,status,SR,status,TA,status,DirAvg,status,SpdAvg,
2008-07-11, 06:29:04,VALID,1004.71,VALID,0,VALID,94.1404,VALID,83.3667,VALID,24.4433,VALID,148,VALID,0.123438,
2008-07-11, 06:30:04,VALID,1004.71,VALID,0,VALID,94.0183,VALID,88.9982,VALID,24.4822,VALID,142,VALID,0.403516,
2008-07-11, 06:31:04,VALID,1004.67,VALID,0,VALID,93.8429,VALID,92.5179,VALID,24.4628,VALID,142,VALID,0.230469,
2008-07-11, 06:32:04,VALID,1004.67,VALID,0,VALID,93.881,VALID,97.1438,VALID,24.4822,VALID,142,VALID,0.0117188,
2008-07-11, 06:33:04,VALID,1004.64,VALID,0,VALID,93.8429,VALID,98.4511,VALID,24.5017,VALID,143,VALID,0.110547,
2008-07-11, 06:34:04,VALID,1004.63,VALID,0,VALID,93.5377,VALID,103.58,VALID,24.5212,VALID,149,VALID,0,
2008-07-11, 06:35:04,VALID,1004.66,VALID,0,VALID,93.4538,VALID,105.692,VALID,24.5406,VALID,149,VALID,0.00234375,
2008-07-11, 06:36:04,VALID,1004.66,VALID,0,VALID,93.408,VALID,103.077,VALID,24.5777,VALID,149,VALID,0.0640625,
2008-07-11, 06:37:04,VALID,1004.7,VALID,0,VALID,92.4315,VALID,90.8083,VALID,24.5796,VALID,149,VALID,0.404297,
2008-07-11, 06:38:04,VALID,1004.68,VALID,0,VALID,92.1798,VALID,73.5115,VALID,24.5796,VALID,149,VALID,0,
2008-07-11, 06:39:04,VALID,1004.71,VALID,0,VALID,91.9738,VALID,75.4222,VALID,24.6185,VALID,149,VALID,0,
2008-07-11, 06:40:04,VALID,1004.73,VALID,0,VALID,91.9128,VALID,80.0481,VALID,24.6769,VALID,149,VALID,0,
2008-07-11, 06:41:04,VALID,1004.74,VALID,0,VALID,92.0577,VALID,75.7239,VALID,24.7353,VALID,149,VALID,0,
2008-07-11, 06:42:04,VALID,1004.75,VALID,0,VALID,92.2561,VALID,74.6177,VALID,24.7937,VALID,149,VALID,0,
2008-07-11, 06:43:04,VALID,1004.76,VALID,0,VALID,91.6076,VALID,75.1205,VALID,24.8132,VALID,149,VALID,0.182031,
2008-07-11, 06:44:04,VALID,1004.78,VALID,0,VALID,91.8822,VALID,71.3997,VALID,24.8522,VALID,149,VALID,0.278516,
2008-07-11, 06:45:04,VALID,1004.83,VALID,0,VALID,90.8066,VALID,70.9974,VALID,24.8716,VALID,236,VALID,0.503906,
2008-07-11, 06:46:04,VALID,1004.95,VALID,0,VALID,90.715,VALID,74.316,VALID,24.8911,VALID,236,VALID,0.0414063,
2008-07-11, 06:47:04,VALID,1004.96,VALID,0,VALID,90.5701,VALID,80.6515,VALID,24.9319,VALID,236,VALID,0,
2008-07-11, 06:48:04,VALID,1005,VALID,0,VALID,90.0894,VALID,85.0762,VALID,24.9514,VALID,236,VALID,0,
2008-07-11, 06:49:04,VALID,1004.99,VALID,0,VALID,90.3031,VALID,87.3892,VALID,24.9495,VALID,236,VALID,0,
2008-07-11, 06:50:04,VALID,1004.99,VALID,0,VALID,90.4556,VALID,81.1543,VALID,24.9885,VALID,236,VALID,0,
2008-07-11, 06:51:04,VALID,1004.98,VALID,0,VALID,90.181,VALID,73.7126,VALID,25.0274,VALID,236,VALID,0,
2008-07-11, 06:52:04,VALID,1005.04,VALID,0,VALID,90.2115,VALID,69.7907,VALID,25.0469,VALID,236,VALID,0.0710938,
2008-07-11, 06:53:04,VALID,1005.07,VALID,0,VALID,90.4862,VALID,69.9918,VALID,25.0663,VALID,236,VALID,0.479688,
2008-07-11, 06:54:04,VALID,1005.07,VALID,0,VALID,90.5014,VALID,69.7907,VALID,25.0488,VALID,36,VALID,0.871875,
2008-07-11, 06:55:04,VALID,1005.08,VALID,0,VALID,90.6921,VALID,70.0924,VALID,25.0293,VALID,32,VALID,0.487109,
2008-07-11, 06:56:04,VALID,1005.04,VALID,0,VALID,91.1346,VALID,68.2822,VALID,25.0079,VALID,1,VALID,0.678125,
2008-07-11, 06:57:04,VALID,1005.05,VALID,0,VALID,91.0965,VALID,64.4608,VALID,25.0098,VALID,1,VALID,0.426562,
2008-07-11, 06:58:04,VALID,1005.03,VALID,0,VALID,90.4785,VALID,61.6451,VALID,24.9904,VALID,360,VALID,0.511328,
2008-07-11, 06:59:04,VALID,1005.06,VALID,0,VALID,90.4556,VALID,59.5333,VALID,24.9709,VALID,360,VALID,0.442578,
2008-07-11, 07:00:04,VALID,1005.07,VALID,0,VALID,90.5396,VALID,58.1254,VALID,24.9495,VALID,1,VALID,0.488672,
2008-07-11, 07:01:04,VALID,1005.12,VALID,0,VALID,91.0278,VALID,58.2259,VALID,24.9904,VALID,360,VALID,0.25625,
2008-07-11, 07:02:04,VALID,1005.15,VALID,0,VALID,90.8295,VALID,58.5276,VALID,24.9904,VALID,2,VALID,0.516406,
2008-07-11, 07:03:04,VALID,1005.15,VALID,0,VALID,90.8905,VALID,58.8293,VALID,24.9495,VALID,2,VALID,0.0792969,
2008-07-11, 07:04:04,VALID,1005.13,VALID,0,VALID,90.9134,VALID,60.9411,VALID,24.9495,VALID,2,VALID,0,
2008-07-11, 07:05:04,VALID,1005.15,VALID,0,VALID,90.9591,VALID,61.9468,VALID,24.9495,VALID,2,VALID,0.282813,
2008-07-11, 07:06:04,VALID,1005.16,VALID,0,VALID,91.1956,VALID,61.6451,VALID,24.9495,VALID,2,VALID,0.194141,
2008-07-11, 07:07:04,VALID,1005.15,VALID,0,VALID,91.4245,VALID,61.1423,VALID,25.0098,VALID,2,VALID,0,
2008-07-11, 07:08:04,VALID,1005.16,VALID,0,VALID,91.3787,VALID,60.9411,VALID,25.0098,VALID,2,VALID,0,
2008-07-11, 07:09:04,VALID,1005.19,VALID,0,VALID,91.3635,VALID,61.7456,VALID,25.0098,VALID,2,VALID,0,
2008-07-11, 07:10:04,VALID,1005.17,VALID,0,VALID,91.3635,VALID,63.8575,VALID,25.0488,VALID,2,VALID,0,
2008-07-11, 07:11:04,VALID,1005.18,VALID,0,VALID,91.5237,VALID,65.2654,VALID,25.0488,VALID,2,VALID,0,
2008-07-11, 07:12:04,VALID,1005.18,VALID,0,VALID,91.4321,VALID,64.0586,VALID,25.0877,VALID,2,VALID,0.273047,
2008-07-11, 07:13:04,VALID,1005.19,VALID,0,VALID,91.4779,VALID,63.2541,VALID,25.0858,VALID,2,VALID,0.130469,
2008-07-11, 07:14:04,VALID,1005.19,VALID,0,VALID,91.1193,VALID,63.3547,VALID,25.1248,VALID,306,VALID,0.6125,
2008-07-11, 07:15:04,VALID,1005.19,VALID,0,VALID,91.2414,VALID,62.349,VALID,25.1637,VALID,302,VALID,0.479297,
2008-07-11, 07:16:04,VALID,1005.2,VALID,0,VALID,90.8981,VALID,59.6338,VALID,25.2027,VALID,301,VALID,0.137109,
2008-07-11, 07:17:04,VALID,1005.26,VALID,0,VALID,90.6387,VALID,57.3209,VALID,25.2435,VALID,350,VALID,0.439453,
2008-07-11, 07:18:04,VALID,1005.32,VALID,0,VALID,90.6769,VALID,56.9186,VALID,25.2416,VALID,350,VALID,0.319531,
2008-07-11, 07:19:04,VALID,1005.35,VALID,0,VALID,90.7532,VALID,57.4214,VALID,25.2825,VALID,350,VALID,0.333984,
2008-07-11, 07:20:04,VALID,1005.4,VALID,0,VALID,91.0278,VALID,58.0248,VALID,25.3019,VALID,350,VALID,0.457031,
2008-07-11, 07:21:04,VALID,1005.47,VALID,0,VALID,91.1804,VALID,57.522,VALID,25.3019,VALID,11,VALID,0.545313,
2008-07-11, 07:22:04,VALID,1005.57,VALID,0.5,VALID,91.5389,VALID,57.4214,VALID,25.2825,VALID,87,VALID,1.06289,
2008-07-11, 07:23:04,VALID,1005.63,VALID,0,VALID,92.0424,VALID,55.1085,VALID,25.224,VALID,105,VALID,1.31758,
2008-07-11, 07:24:04,VALID,1005.65,VALID,0,VALID,92.1111,VALID,50.8848,VALID,25.1248,VALID,119,VALID,1.76211,
2008-07-11, 07:25:04,VALID,1005.61,VALID,1,VALID,91.9738,VALID,48.4713,VALID,25.0098,VALID,131,VALID,1.96367,
2008-07-11, 07:26:04,VALID,1005.61,VALID,0,VALID,92.6299,VALID,55.4102,VALID,24.854,VALID,164,VALID,1.86211,
2008-07-11, 07:27:04,VALID,1005.57,VALID,0,VALID,92.9503,VALID,69.489,VALID,24.7372,VALID,170,VALID,1.14141,
2008-07-11, 07:28:04,VALID,1005.61,VALID,0.5,VALID,92.7062,VALID,90.8083,VALID,24.6417,VALID,167,VALID,1.65898,
2008-07-11, 07:29:04,VALID,1005.6,VALID,0,VALID,93.3165,VALID,113.837,VALID,24.562,VALID,169,VALID,1.21836,
2008-07-11, 07:30:04,VALID,1005.55,VALID,0,VALID,93.5224,VALID,120.977,VALID,24.5035,VALID,207,VALID,0.882813,
2008-07-11, 07:31:04,VALID,1005.54,VALID,0,VALID,93.7132,VALID,122.083,VALID,24.4841,VALID,237,VALID,0.316016,
2008-07-11, 07:32:04,VALID,1005.54,VALID,0,VALID,93.9649,VALID,119.167,VALID,24.5035,VALID,356,VALID,0.458203,
2008-07-11, 07:33:04,VALID,1005.56,VALID,0,VALID,94.4837,VALID,118.061,VALID,24.5796,VALID,4,VALID,1.14297,
2008-07-11, 07:34:04,VALID,1005.59,VALID,0,VALID,94.3464,VALID,121.983,VALID,24.6009,VALID,3,VALID,0.755859,
2008-07-11, 07:35:04,VALID,1005.57,VALID,0,VALID,94.5371,VALID,130.732,VALID,24.6204,VALID,3,VALID,0.584375,
2008-07-11, 07:36:04,VALID,1005.56,VALID,0,VALID,94.6363,VALID,138.173,VALID,24.6593,VALID,3,VALID,0.363672,
2008-07-11, 07:37:04,VALID,1005.53,VALID,0,VALID,94.7507,VALID,143.403,VALID,24.6964,VALID,3,VALID,0.442578,
2008-07-11, 07:38:04,VALID,1005.49,VALID,0,VALID,94.682,VALID,144.61,VALID,24.7353,VALID,3,VALID,0.426172,
2008-07-11, 07:39:04,VALID,1005.51,VALID,0,VALID,94.8575,VALID,140.788,VALID,24.7937,VALID,3,VALID,0.363281,
2008-07-11, 07:40:04,VALID,1005.46,VALID,0,VALID,94.8499,VALID,134.955,VALID,24.8132,VALID,3,VALID,0.310156,
2008-07-11, 07:41:04,VALID,1005.47,VALID,0,VALID,94.8346,VALID,129.223,VALID,24.8735,VALID,3,VALID,0.382813,
2008-07-11, 07:42:04,VALID,1005.5,VALID,0,VALID,94.6057,VALID,120.977,VALID,24.854,VALID,13,VALID,0.391016,
2008-07-11, 07:43:04,VALID,1005.49,VALID,0,VALID,94.3692,VALID,112.228,VALID,24.7956,VALID,15,VALID,0.410937,
2008-07-11, 07:44:04,VALID,1005.5,VALID,0,VALID,94.4303,VALID,105.591,VALID,24.8151,VALID,15,VALID,0.182812,
2008-07-11, 07:45:04,VALID,1005.56,VALID,0,VALID,94.3921,VALID,99.2556,VALID,24.817,VALID,15,VALID,0.223438,
2008-07-11, 07:46:04,VALID,1005.6,VALID,0,VALID,94.4761,VALID,95.2331,VALID,24.7956,VALID,15,VALID,0.235547,
2008-07-11, 07:47:04,VALID,1005.64,VALID,0,VALID,94.7736,VALID,93.1213,VALID,24.8716,VALID,16,VALID,0.285547,
2008-07-11, 07:48:04,VALID,1005.67,VALID,0,VALID,94.8346,VALID,92.8196,VALID,24.9319,VALID,17,VALID,0.371094,
2008-07-11, 07:49:04,VALID,1005.74,VALID,0,VALID,94.5218,VALID,89.9033,VALID,24.893,VALID,19,VALID,0.295312,
2008-07-11, 07:50:04,VALID,1005.75,VALID,0,VALID,94.5752,VALID,86.4841,VALID,24.893,VALID,19,VALID,0.00117188,
2008-07-11, 07:51:04,VALID,1005.77,VALID,0,VALID,94.5752,VALID,85.0762,VALID,24.9125,VALID,19,VALID,0.217187,
2008-07-11, 07:52:04,VALID,1005.8,VALID,0,VALID,94.6057,VALID,85.2774,VALID,24.9319,VALID,19,VALID,0.194922,
2008-07-11, 07:53:04,VALID,1005.84,VALID,0,VALID,94.7583,VALID,86.4841,VALID,24.9904,VALID,19,VALID,0.000390625,
2008-07-11, 07:54:04,VALID,1005.9,VALID,0,VALID,94.7431,VALID,89.2999,VALID,25.0098,VALID,19,VALID,0,
2008-07-11, 07:55:04,VALID,1005.85,VALID,0,VALID,94.7049,VALID,92.9202,VALID,25.0098,VALID,19,VALID,0.443359,
2008-07-11, 07:56:04,VALID,1005.82,VALID,0,VALID,94.7736,VALID,97.0432,VALID,25.0682,VALID,19,VALID,0.0511719,
2008-07-11, 07:57:04,VALID,1005.8,VALID,0,VALID,94.7431,VALID,102.574,VALID,25.0682,VALID,19,VALID,0.0714844,
2008-07-11, 07:58:04,VALID,1005.77,VALID,0,VALID,94.6668,VALID,107.904,VALID,25.0877,VALID,19,VALID,0.205859,
2008-07-11, 07:59:04,VALID,1005.74,VALID,0,VALID,94.3006,VALID,112.128,VALID,25.0488,VALID,19,VALID,0.00585938,
2008-07-11, 08:00:04,VALID,1005.75,VALID,0,VALID,94.5676,VALID,117.759,VALID,25.0682,VALID,359,VALID,0.276563,
2008-07-11, 08:01:04,VALID,1005.77,VALID,0,VALID,94.5371,VALID,123.692,VALID,25.1072,VALID,53,VALID,0.601172,
2008-07-11, 08:02:04,VALID,1005.85,VALID,0,VALID,94.148,VALID,128.218,VALID,25.0896,VALID,63,VALID,0.392969,
2008-07-11, 08:03:04,VALID,1005.85,VALID,0,VALID,93.6903,VALID,130.33,VALID,25.0488,VALID,25,VALID,0.777344,
2008-07-11, 08:04:04,VALID,1005.86,VALID,0,VALID,93.7284,VALID,132.944,VALID,25.0488,VALID,27,VALID,0.385156,
2008-07-11, 08:05:04,VALID,1005.85,VALID,0,VALID,93.7971,VALID,137.57,VALID,25.0877,VALID,4,VALID,0.464063,
2008-07-11, 08:06:04,VALID,1005.79,VALID,0,VALID,94.0107,VALID,143.302,VALID,25.1675,VALID,2,VALID,0.348047,
2008-07-11, 08:07:04,VALID,1005.74,VALID,0,VALID,94.1175,VALID,150.04,VALID,25.1851,VALID,3,VALID,0.741016,
2008-07-11, 08:08:04,VALID,1005.73,VALID,0,VALID,94.2014,VALID,155.068,VALID,25.2435,VALID,352,VALID,0.293359,
2008-07-11, 08:09:04,VALID,1005.66,VALID,0,VALID,94.2777,VALID,158.688,VALID,25.2806,VALID,345,VALID,0.417578,
2008-07-11, 08:10:04,VALID,1005.6,VALID,0,VALID,94.0336,VALID,162.811,VALID,25.3214,VALID,288,VALID,1.03281,
2008-07-11, 08:11:04,VALID,1005.58,VALID,0,VALID,94.2624,VALID,167.236,VALID,25.3604,VALID,287,VALID,0.230469,
2008-07-11, 08:12:04,VALID,1005.57,VALID,0,VALID,94.3006,VALID,172.566,VALID,25.4383,VALID,306,VALID,0.264062,
2008-07-11, 08:13:04,VALID,1005.58,VALID,0,VALID,94.1328,VALID,177.896,VALID,25.4383,VALID,357,VALID,0.663281,
2008-07-11, 08:14:04,VALID,1005.56,VALID,0,VALID,94.1785,VALID,182.522,VALID,25.4577,VALID,319,VALID,0.0425781,
2008-07-11, 08:15:04,VALID,1005.53,VALID,0,VALID,93.9802,VALID,186.745,VALID,25.4577,VALID,291,VALID,0.139844,
2008-07-11, 08:16:04,VALID,1005.51,VALID,0,VALID,93.6979,VALID,191.673,VALID,25.4967,VALID,299,VALID,0.878906,
2008-07-11, 08:17:04,VALID,1005.47,VALID,0,VALID,93.7055,VALID,205.249,VALID,25.4577,VALID,298,VALID,0.807813,
2008-07-11, 08:18:04,VALID,1005.44,VALID,0,VALID,93.5987,VALID,229.284,VALID,25.4169,VALID,285,VALID,0.248437,
2008-07-11, 08:19:04,VALID,1005.46,VALID,0,VALID,93.8886,VALID,244.267,VALID,25.5181,VALID,282,VALID,0.496094,
2008-07-11, 08:20:04,VALID,1005.5,VALID,0,VALID,93.8505,VALID,221.037,VALID,25.5571,VALID,252,VALID,0.100781,
2008-07-11, 08:21:04,VALID,1005.56,VALID,0,VALID,93.9954,VALID,320.896,VALID,25.5941,VALID,256,VALID,0.174219,
2008-07-11, 08:22:04,VALID,1005.62,VALID,0,VALID,93.9497,VALID,326.83,VALID,25.633,VALID,358,VALID,0.728516,
2008-07-11, 08:23:04,VALID,1005.65,VALID,0,VALID,93.2554,VALID,336.484,VALID,25.6739,VALID,355,VALID,0.619531,
2008-07-11, 08:24:04,VALID,1005.68,VALID,0,VALID,93.3928,VALID,353.479,VALID,25.7109,VALID,282,VALID,0.114844,
2008-07-11, 08:25:04,VALID,1005.7,VALID,0,VALID,93.7284,VALID,379.927,VALID,25.8493,VALID,282,VALID,0.0113281,
2008-07-11, 08:26:04,VALID,1005.71,VALID,0,VALID,93.8657,VALID,421.761,VALID,25.9642,VALID,283,VALID,0.0183594,
2008-07-11, 08:27:04,VALID,1005.72,VALID,0,VALID,92.935,VALID,474.255,VALID,26.0421,VALID,336,VALID,0.592969,
2008-07-11, 08:28:04,VALID,1005.72,VALID,0,VALID,91.8975,VALID,462.087,VALID,26.0421,VALID,346,VALID,0.396875,
2008-07-11, 08:29:04,VALID,1005.7,VALID,0,VALID,91.7983,VALID,493.06,VALID,26.1005,VALID,348,VALID,0.910937,
2008-07-11, 08:30:04,VALID,1005.68,VALID,0,VALID,92.6222,VALID,547.766,VALID,26.2564,VALID,351,VALID,0.0527344,
2008-07-11, 08:31:04,VALID,1005.69,VALID,0,VALID,92.6909,VALID,466.612,VALID,26.4337,VALID,336,VALID,0.113281,
2008-07-11, 08:32:04,VALID,1005.73,VALID,0,VALID,91.6076,VALID,522.525,VALID,26.4707,VALID,358,VALID,0.755859,
2008-07-11, 08:33:04,VALID,1005.74,VALID,0,VALID,89.029,VALID,542.839,VALID,26.6285,VALID,309,VALID,0.664453,
2008-07-11, 08:34:04,VALID,1005.73,VALID,0,VALID,89.4028,VALID,618.864,VALID,26.6091,VALID,306,VALID,0.297656,
2008-07-11, 08:35:04,VALID,1005.73,VALID,0,VALID,90.9363,VALID,522.525,VALID,26.8039,VALID,306,VALID,0.524609,
2008-07-11, 08:36:04,VALID,1005.71,VALID,0,VALID,89.4334,VALID,389.279,VALID,26.9578,VALID,289,VALID,0.58125,
2008-07-11, 08:37:04,VALID,1005.68,VALID,0,VALID,88.6476,VALID,434.231,VALID,26.9967,VALID,302,VALID,0.227734,
2008-07-11, 08:38:04,VALID,1005.62,VALID,0,VALID,87.2439,VALID,429.303,VALID,27.0552,VALID,232,VALID,0.654297,
2008-07-11, 08:39:04,VALID,1005.54,VALID,0,VALID,86.4047,VALID,475.462,VALID,26.9988,VALID,200,VALID,0.767187,
2008-07-11, 08:40:04,VALID,1005.53,VALID,0,VALID,88.3272,VALID,609.11,VALID,27.0183,VALID,258,VALID,0.636328,
2008-07-11, 08:41:04,VALID,1005.46,VALID,0,VALID,87.3812,VALID,639.48,VALID,27.0572,VALID,315,VALID,0.869141,
2008-07-11, 08:42:04,VALID,1005.49,VALID,0,VALID,86.2598,VALID,651.447,VALID,27.1547,VALID,286,VALID,1.11055,
2008-07-11, 08:43:04,VALID,1005.47,VALID,0,VALID,87.5414,VALID,636.664,VALID,27.369,VALID,290,VALID,0.646094,
2008-07-11, 08:44:04,VALID,1005.47,VALID,0,VALID,85.8936,VALID,630.127,VALID,27.4449,VALID,307,VALID,0.244531,
2008-07-11, 08:45:04,VALID,1005.49,VALID,0,VALID,85.802,VALID,587.388,VALID,27.6419,VALID,339,VALID,0.028125,
2008-07-11, 08:46:04,VALID,1005.5,VALID,0,VALID,83.3226,VALID,614.641,VALID,27.8563,VALID,328,VALID,0.297656,
2008-07-11, 08:47:04,VALID,1005.51,VALID,0,VALID,82.7734,VALID,629.323,VALID,27.9343,VALID,284,VALID,0.351953,
2008-07-11, 08:48:04,VALID,1005.5,VALID,0.5,VALID,82.3232,VALID,669.95,VALID,27.8347,VALID,177,VALID,0.318359,
2008-07-11, 08:49:04,VALID,1005.52,VALID,0,VALID,83.3531,VALID,669.649,VALID,27.7978,VALID,108,VALID,0.479688,
2008-07-11, 08:50:04,VALID,1005.49,VALID,0,VALID,84.0397,VALID,403.861,VALID,27.8953,VALID,108,VALID,0,
2008-07-11, 08:51:04,VALID,1005.49,VALID,0,VALID,83.6049,VALID,420.554,VALID,28.0902,VALID,258,VALID,0.717969,
2008-07-11, 08:52:04,VALID,1005.52,VALID,0,VALID,80.294,VALID,403.056,VALID,28.0707,VALID,221,VALID,0.487891,
2008-07-11, 08:53:04,VALID,1005.55,VALID,0,VALID,81.095,VALID,271.419,VALID,27.9559,VALID,201,VALID,0.608594,
2008-07-11, 08:54:04,VALID,1005.57,VALID,0,VALID,81.6595,VALID,220.937,VALID,27.8194,VALID,201,VALID,0.257422,
2008-07-11, 08:55:04,VALID,1005.58,VALID,0,VALID,81.6061,VALID,178.399,VALID,27.6809,VALID,202,VALID,0.0148437,
2008-07-11, 08:56:04,VALID,1005.58,VALID,0,VALID,81.8884,VALID,157.18,VALID,27.6224,VALID,294,VALID,0.594141,
2008-07-11, 08:57:04,VALID,1005.58,VALID,0,VALID,82.8878,VALID,156.878,VALID,27.5855,VALID,309,VALID,0.526563,
2008-07-11, 08:58:04,VALID,1005.59,VALID,0,VALID,82.5521,VALID,154.465,VALID,27.5229,VALID,311,VALID,0.532031,
2008-07-11, 08:59:04,VALID,1005.57,VALID,0,VALID,82.5979,VALID,156.074,VALID,27.525,VALID,307,VALID,0.276953,
2008-07-11, 09:00:04,VALID,1005.57,VALID,0,VALID,83.5591,VALID,151.749,VALID,27.5229,VALID,306,VALID,0.3125,
2008-07-11, 09:01:04,VALID,1005.55,VALID,0,VALID,83.4447,VALID,144.509,VALID,27.5034,VALID,253,VALID,0.000390625,
2008-07-11, 09:02:04,VALID,1005.56,VALID,0,VALID,83.3837,VALID,147.124,VALID,27.4839,VALID,359,VALID,0.75,
2008-07-11, 09:03:04,VALID,1005.55,VALID,0,VALID,84.2915,VALID,147.727,VALID,27.4449,VALID,359,VALID,0.221875,
2008-07-11, 09:04:04,VALID,1005.51,VALID,0,VALID,83.521,VALID,134.955,VALID,27.5055,VALID,305,VALID,0.558594,
2008-07-11, 09:05:04,VALID,1005.52,VALID,0,VALID,82.5521,VALID,121.581,VALID,27.4644,VALID,279,VALID,0.350391,
2008-07-11, 09:06:04,VALID,1005.53,VALID,0,VALID,82.8268,VALID,112.53,VALID,27.4449,VALID,311,VALID,0.817187,
2008-07-11, 09:07:04,VALID,1005.52,VALID,0,VALID,83.5668,VALID,121.178,VALID,27.367,VALID,330,VALID,0.721875,
2008-07-11, 09:08:04,VALID,1005.57,VALID,0,VALID,83.46,VALID,142.297,VALID,27.289,VALID,344,VALID,0.456641,
2008-07-11, 09:09:04,VALID,1005.56,VALID,0,VALID,83.3379,VALID,160.7,VALID,27.2521,VALID,343,VALID,0.780078,
2008-07-11, 09:10:04,VALID,1005.6,VALID,0,VALID,84.0931,VALID,152.655,VALID,27.1916,VALID,327,VALID,0.375,
2008-07-11, 09:11:04,VALID,1005.61,VALID,0,VALID,83.2311,VALID,136.866,VALID,27.1526,VALID,291,VALID,0.952734,
2008-07-11, 09:12:04,VALID,1005.66,VALID,0,VALID,83.8033,VALID,126.307,VALID,27.1136,VALID,319,VALID,0.414063,
2008-07-11, 09:13:04,VALID,1005.72,VALID,0,VALID,83.8948,VALID,120.676,VALID,27.0336,VALID,329,VALID,0.749609,
2008-07-11, 09:14:04,VALID,1005.71,VALID,0,VALID,84.4746,VALID,110.217,VALID,26.9967,VALID,319,VALID,0.254687,
2008-07-11, 09:15:04,VALID,1005.73,VALID,0,VALID,84.6729,VALID,99.4567,VALID,26.9967,VALID,317,VALID,0.376953,
2008-07-11, 09:16:04,VALID,1005.75,VALID,0,VALID,84.6806,VALID,93.2218,VALID,26.9188,VALID,353,VALID,1.1832,
2008-07-11, 09:17:04,VALID,1005.77,VALID,0,VALID,85.5274,VALID,84.1712,VALID,26.8603,VALID,355,VALID,1.13945,
2008-07-11, 09:18:04,VALID,1005.78,VALID,0,VALID,85.001,VALID,72.1036,VALID,26.7024,VALID,1,VALID,1.62031,
2008-07-11, 09:19:04,VALID,1005.77,VALID,0,VALID,86.214,VALID,66.5727,VALID,26.6245,VALID,360,VALID,0.983203,
2008-07-11, 09:20:04,VALID,1005.77,VALID,0,VALID,85.9927,VALID,68.0811,VALID,26.5855,VALID,357,VALID,0.807813,
2008-07-11, 09:21:04,VALID,1005.76,VALID,0,VALID,87.0532,VALID,83.2661,VALID,26.5466,VALID,357,VALID,0.214062,
2008-07-11, 09:22:04,VALID,1005.78,VALID,0,VALID,87.16,VALID,97.7472,VALID,26.5466,VALID,357,VALID,0.401563,
2008-07-11, 09:23:04,VALID,1005.75,VALID,0,VALID,87.3583,VALID,110.921,VALID,26.5486,VALID,357,VALID,0.434375,
2008-07-11, 09:24:04,VALID,1005.78,VALID,0,VALID,87.1447,VALID,126.408,VALID,26.5271,VALID,349,VALID,0.49375,
2008-07-11, 09:25:04,VALID,1005.77,VALID,0,VALID,87.2973,VALID,140.185,VALID,26.5486,VALID,349,VALID,0.347266,
2008-07-11, 09:26:04,VALID,1005.79,VALID,0,VALID,87.3202,VALID,145.816,VALID,26.5466,VALID,349,VALID,0.0648438,
2008-07-11, 09:27:04,VALID,1005.81,VALID,0,VALID,88.167,VALID,151.649,VALID,26.5855,VALID,349,VALID,0.0355469,
2008-07-11, 09:28:04,VALID,1005.8,VALID,0,VALID,86.1148,VALID,157.18,VALID,26.607,VALID,27,VALID,0.958984,
2008-07-11, 09:29:04,VALID,1005.84,VALID,0,VALID,85.947,VALID,162.51,VALID,26.607,VALID,22,VALID,0.989062,
2008-07-11, 09:30:04,VALID,1005.86,VALID,0,VALID,85.1841,VALID,165.426,VALID,26.5896,VALID,19,VALID,1.23164,
2008-07-11, 09:31:04,VALID,1005.9,VALID,0,VALID,85.2985,VALID,159.795,VALID,26.5701,VALID,32,VALID,1.28203,
2008-07-11, 09:32:04,VALID,1005.95,VALID,0,VALID,86.1682,VALID,138.877,VALID,26.5701,VALID,41,VALID,1.20977,
2008-07-11, 09:33:04,VALID,1005.99,VALID,0,VALID,86.2292,VALID,118.262,VALID,26.5291,VALID,44,VALID,0.976172,
2008-07-11, 09:34:04,VALID,1006.01,VALID,0,VALID,86.8014,VALID,98.3506,VALID,26.5486,VALID,15,VALID,0.83125,
2008-07-11, 09:35:04,VALID,1006.01,VALID,0,VALID,86.6717,VALID,81.3554,VALID,26.5486,VALID,32,VALID,0.948438,
2008-07-11, 09:36:04,VALID,1006.06,VALID,0,VALID,86.8701,VALID,71.098,VALID,26.5291,VALID,6,VALID,1.20469,
2008-07-11, 09:37:04,VALID,1006.07,VALID,0,VALID,86.0767,VALID,65.8687,VALID,26.4901,VALID,41,VALID,1.80586,
2008-07-11, 09:38:04,VALID,1006.05,VALID,0,VALID,85.8859,VALID,62.4496,VALID,26.4122,VALID,14,VALID,1.93477,
2008-07-11, 09:39:04,VALID,1006.03,VALID,0,VALID,86.1377,VALID,60.8406,VALID,26.3343,VALID,9,VALID,1.88281,
2008-07-11, 09:40:04,VALID,1005.98,VALID,0,VALID,85.8783,VALID,64.3603,VALID,26.2759,VALID,35,VALID,3.07422,
2008-07-11, 09:41:04,VALID,1005.99,VALID,0,VALID,86.3132,VALID,73.1093,VALID,26.1375,VALID,14,VALID,2.40859,
2008-07-11, 09:42:04,VALID,1005.96,VALID,0,VALID,87.4041,VALID,88.596,VALID,26.12,VALID,12,VALID,0.883594,
2008-07-11, 09:43:04,VALID,1005.9,VALID,0,VALID,87.6177,VALID,103.781,VALID,26.083,VALID,4,VALID,1.17188,
2008-07-11, 09:44:04,VALID,1005.9,VALID,0,VALID,87.2515,VALID,114.139,VALID,26.0051,VALID,5,VALID,2.00117,
2008-07-11, 09:45:04,VALID,1005.84,VALID,0,VALID,86.8319,VALID,118.363,VALID,25.9057,VALID,2,VALID,1.81992,
2008-07-11, 09:46:04,VALID,1005.78,VALID,0,VALID,85.4282,VALID,117.759,VALID,25.8687,VALID,11,VALID,3.07539,
2008-07-11, 09:47:04,VALID,1005.77,VALID,0,VALID,86.9769,VALID,114.541,VALID,25.8298,VALID,22,VALID,1.42891,
2008-07-11, 09:48:04,VALID,1005.69,VALID,0,VALID,87.4575,VALID,103.077,VALID,25.7908,VALID,346,VALID,1.32773,
2008-07-11, 09:49:04,VALID,1005.68,VALID,0,VALID,87.6635,VALID,83.1656,VALID,25.7499,VALID,355,VALID,1.19297,
2008-07-11, 09:50:04,VALID,1005.66,VALID,0,VALID,87.3888,VALID,69.1873,VALID,25.7499,VALID,353,VALID,1.63437,
2008-07-11, 09:51:04,VALID,1005.67,VALID,0,VALID,86.7938,VALID,60.3378,VALID,25.6934,VALID,42,VALID,1.38281,
2008-07-11, 09:52:04,VALID,1005.71,VALID,0,VALID,87.6635,VALID,53.3989,VALID,25.633,VALID,47,VALID,0.809766,
2008-07-11, 09:53:04,VALID,1005.68,VALID,0,VALID,86.0919,VALID,48.9742,VALID,25.5376,VALID,35,VALID,1.70352,
2008-07-11, 09:54:04,VALID,1005.7,VALID,0,VALID,86.7861,VALID,46.3595,VALID,25.4986,VALID,38,VALID,1.53672,
2008-07-11, 09:55:04,VALID,1005.68,VALID,0,VALID,86.7861,VALID,42.7393,VALID,25.3993,VALID,30,VALID,2.20156,
2008-07-11, 09:56:04,VALID,1005.69,VALID,0,VALID,87.5109,VALID,39.5212,VALID,25.3019,VALID,30,VALID,1.8668,
2008-07-11, 09:57:04,VALID,1005.74,VALID,0,VALID,88.4111,VALID,39.7224,VALID,25.2806,VALID,25,VALID,0.755859,
2008-07-11, 09:58:04,VALID,1005.7,VALID,0,VALID,88.4874,VALID,41.1302,VALID,25.2435,VALID,17,VALID,0.976172,
2008-07-11, 09:59:04,VALID,1005.75,VALID,0,VALID,89.3266,VALID,41.5325,VALID,25.2027,VALID,4,VALID,1.02891,
2008-07-11, 10:00:04,VALID,1005.75,VALID,0,VALID,88.9833,VALID,40.9291,VALID,25.1442,VALID,31,VALID,1.92891,
2008-07-11, 10:01:04,VALID,1005.77,VALID,0,VALID,89.1664,VALID,42.7393,VALID,25.1248,VALID,27,VALID,1.21055,
2008-07-11, 10:02:04,VALID,1005.73,VALID,0,VALID,89.0901,VALID,48.5719,VALID,25.1053,VALID,7,VALID,1.83711,
2008-07-11, 10:03:04,VALID,1005.78,VALID,0,VALID,89.7996,VALID,52.695,VALID,25.1053,VALID,79,VALID,0.811719,